WetterOnline ( https://www.wetteronline.de )

Wetter aktuell Ostrava

Aktuelles Wetter: Ostrava (260m)

6-stündlich | Neueste Meldungen
Ortszeit Temperatur Wetter
So, 16.06. 2:00 20.4° C leicht bewölkt
Sa, 15.06. 20:00 27.9° C leicht bewölkt
Sa, 15.06. 14:00 31.9° C leicht bewölkt
Sa, 15.06. 8:00 20.6° C wolkig
Sa, 15.06. 2:00 19.3° C leicht bewölkt
Fr, 14.06. 20:00 27.4° C fast wolkenlos
Fr, 14.06. 14:00 26.6° C leicht bewölkt
Fr, 14.06. 8:00 20.1° C wolkig
Ortszeit Temperatur Wetter
So, 16.06. 6:30 20° C -
So, 16.06. 6:00 19.5° C leicht bewölkt
So, 16.06. 5:30 18° C -
So, 16.06. 5:00 17.7° C leicht bewölkt
So, 16.06. 4:30 18° C -
So, 16.06. 4:00 18.2° C leicht bewölkt
So, 16.06. 3:30 19° C -
So, 16.06. 3:00 19.8° C leicht bewölkt
Ortszeit Relative Feuchte Sichtweite
So, 16.06. 2:00 66% 20 km
Sa, 15.06. 20:00 47% 25 km
Sa, 15.06. 14:00 34% 25 km
Sa, 15.06. 8:00 98% 1.0 km
Sa, 15.06. 2:00 98% 4.0 km
Fr, 14.06. 20:00 65% 10 km
Fr, 14.06. 14:00 63% 9 km
Fr, 14.06. 8:00 88% 12 km
Ortszeit Relative Feuchte Sichtweite
So, 16.06. 6:30 78% >10 km
So, 16.06. 6:00 76% 30 km
So, 16.06. 5:30 83% >10 km
So, 16.06. 5:00 84% 30 km
So, 16.06. 4:30 83% >10 km
So, 16.06. 4:00 79% 20 km
So, 16.06. 3:30 73% >10 km
So, 16.06. 3:00 69% 20 km
Ortszeit Niederschlagsmenge Niederschlagsart
So, 16.06. 2:00 0.0 l/m2 in 6 Std. -
Sa, 15.06. 20:00 0.0 l/m2 in 12 Std. -
Sa, 15.06. 14:00 0.0 l/m2 in 6 Std. -
Sa, 15.06. 8:00 0.0 l/m2 in 12 Std. Nebel
Sa, 15.06. 2:00 0.0 l/m2 in 6 Std. -
Fr, 14.06. 20:00 0.0 l/m2 in 12 Std. -
Fr, 14.06. 14:00 0.0 l/m2 in 6 Std. -
Fr, 14.06. 8:00 1 l/m2 in 12 Std. -
Ortszeit Niederschlagsmenge Niederschlagsart
So, 16.06. 6:30 keine Meldung -
So, 16.06. 6:00 0.0 l/m2 in 1 Std. -
So, 16.06. 5:30 keine Meldung -
So, 16.06. 5:00 0.0 l/m2 in 1 Std. -
So, 16.06. 4:30 keine Meldung -
So, 16.06. 4:00 0.0 l/m2 in 1 Std. -
So, 16.06. 3:30 keine Meldung -
So, 16.06. 3:00 0.0 l/m2 in 1 Std. -
Ortszeit Stärke Spitze Richtung
km/h Bft. km/h Grad Sektor
So, 16.06. 2:00 7 2 - 10° N
Sa, 15.06. 20:00 7 2 - 230° SW
Sa, 15.06. 14:00 18 3 - 190° S
Sa, 15.06. 8:00 4 1 - uml. uml.
Sa, 15.06. 2:00 7 2 - 230° SW
Fr, 14.06. 20:00 7 2 - 60° NO
Fr, 14.06. 14:00 11 2 - 10° N
Fr, 14.06. 8:00 7 2 - uml. uml.
Ortszeit Stärke Spitze Richtung
km/h Bft. km/h Grad Sektor
So, 16.06. 6:30 11 2 - 20° N
So, 16.06. 6:00 7 2 - 30° NO
So, 16.06. 5:30 7 2 - 60° NO
So, 16.06. 5:00 7 2 - 360° N
So, 16.06. 4:30 6 1 - 350° N
So, 16.06. 4:00 7 2 - uml. uml.
So, 16.06. 3:30 6 1 - 110° O
So, 16.06. 3:00 7 2 - 100° O
Ortszeit Untergrenze Bedeckung Gattung
total tief tief mittel hoch
So, 16.06. 2:00 1290 m 4/8 3/8 Cb Ac Ci
Sa, 15.06. 20:00 9000 m 2/8 0/8 - - Ci
Sa, 15.06. 14:00 6900 m 4/8 0/8 - - Ci
Sa, 15.06. 8:00 60 m 6/8 6/8 St - Ci
Sa, 15.06. 2:00 7800 m 3/8 0/8 - - Ci
Fr, 14.06. 20:00 7800 m 1/8 0/8 - - Ci
Fr, 14.06. 14:00 780 m 2/8 2/8 Cu - -
Fr, 14.06. 8:00 450 m 5/8 5/8 Sc - -
Ortszeit Bedeckungsgrad in Achtel und Wolkenuntergrenze
So, 16.06. 6:30 keine Wolken(unter 1500 m)
So, 16.06. 6:00 1(1500m) 4(3900m)
So, 16.06. 5:30 keine Wolken(unter 1500 m)
So, 16.06. 5:00 1(1500m) 3(3900m) 5(6900m)
So, 16.06. 4:30 keine Wolken(unter 1500 m)
So, 16.06. 4:00 3(3900m)
So, 16.06. 3:30 keine Wolken(unter 1500 m)
So, 16.06. 3:00 3(9000m)
Ortszeit Luftdruck NN (hPa) Tendenz (hPa in 3 Std.)
So, 16.06. 2:00 1015 + 1,7
Sa, 15.06. 20:00 1011 - 0,7
Sa, 15.06. 14:00 1012 - 1,1
Sa, 15.06. 8:00 1015 - 0,6
Sa, 15.06. 2:00 1016 - 1,5
Fr, 14.06. 20:00 1016 - 1,1
Fr, 14.06. 14:00 1019 - 0,6
Fr, 14.06. 8:00 1019 + 1,6
Ortszeit Luftdruck NN (hPa) Tendenz (hPa in 3 Std.)
So, 16.06. 6:30 1015 keine Meldung
So, 16.06. 6:00 1015 + 0,5
So, 16.06. 5:30 1015 keine Meldung
So, 16.06. 5:00 1015 - 0,3
So, 16.06. 4:30 1014 keine Meldung
So, 16.06. 4:00 1014 - 0,5
So, 16.06. 3:30 1015 keine Meldung
So, 16.06. 3:00 1014 + 0,2
Ortszeit Schneehöhe (cm)
So, 16.06. 2:00 -
Sa, 15.06. 20:00 -
Sa, 15.06. 14:00 -
Sa, 15.06. 8:00 -
Sa, 15.06. 2:00 -
Fr, 14.06. 20:00 0
Fr, 14.06. 14:00 -
Fr, 14.06. 8:00 -
Ortszeit Schneehöhe (cm)
So, 16.06. 6:30 -
So, 16.06. 6:00 -
So, 16.06. 5:30 -
So, 16.06. 5:00 -
So, 16.06. 4:30 -
So, 16.06. 4:00 -
So, 16.06. 3:30 -
So, 16.06. 3:00 -
Link zu dieser Seite / Seite empfehlen

Das Wetter in ...